Weather History for KIDP - May, 2013

Change the Weather History Date:

Thursday, May 2, 2013

  Actual Average (KCFV) Record (KCFV)
Temperature  
Mean Temperature 40 °F -  
Max Temperature 46 °F 73 °F 82 °F (2001)
Min Temperature 33 °F 50 °F 35 °F (2013)
Degree Days  
Heating Degree Days 26    
Moisture  
Dew Point 36 °F    
Average Humidity 87    
Maximum Humidity 93    
Minimum Humidity 76    
Precipitation  
Precipitation 0.00 in - - ()
Sea Level Pressure  
Sea Level Pressure 30.32 in    
Wind  
Wind Speed 20 mph (North)    
Max Wind Speed 32 mph    
Max Gust Speed 39 mph    
Visibility 8 miles    
Events Rain    
Averages and records for this station are not official NWS values.
T = Trace of Precipitation, MM = Missing Value Source: NWS Daily Summary

Daily Weather History Graph

Daily Weather History Graph

Search for Another Location

Airport or City:

Trip Planner

Search our weather history database for the weather conditions in past years. The results will help you decide how hot, cold, wet, or windy it might be!

Date:

Astronomy

May. 02, 2013 Rise Set
Actual Time 6:27 AM CDT 8:13 PM CDT
Civil Twilight 5:59 AM CDT 8:41 PM CDT
Nautical Twilight 5:25 AM CDT 9:15 PM CDT
Astronomical Twilight 4:49 AM CDT 9:52 PM CDT
Moon 2:04 AM CDT (5/2) 1:13 PM CDT (5/2)
Length of Visible Light 14h 42m
Length of Day
13h 46m
Waning Gibbous, 47% of the Moon is Illuminated
May 2
Waning Gibbous
May 9
New
May 17
First Quarter
May 24
Full
May 31
Last Quarter

Hourly Weather History & Observations

Time (CDT) Temp. Windchill Dew Point Humidity Pressure Visibility Wind Dir Wind Speed Gust Speed Precip Events Conditions
12:15 AM 46.4 °F 39.2 °F 41.0 °F 81% 30.14 in 10.0 mi North 18.4 mph 26.5 mph N/A   Clear
12:35 AM 46.4 °F 39.5 °F 41.0 °F 81% 30.16 in 10.0 mi North 17.3 mph 23.0 mph N/A   Clear
12:55 AM 46.4 °F 39.0 °F 41.0 °F 81% 30.16 in 10.0 mi North 19.6 mph 24.2 mph N/A   Scattered Clouds
1:15 AM 44.6 °F 36.4 °F 39.2 °F 81% 30.17 in 10.0 mi North 20.7 mph 28.8 mph N/A   Scattered Clouds
1:35 AM 44.6 °F 36.1 °F 37.4 °F 76% 30.17 in 10.0 mi North 21.9 mph 31.1 mph N/A   Scattered Clouds
1:55 AM 44.6 °F 36.6 °F 37.4 °F 76% 30.19 in 10.0 mi North 19.6 mph 25.3 mph N/A   Mostly Cloudy
2:15 AM 44.6 °F 36.6 °F 37.4 °F 76% 30.19 in 10.0 mi North 19.6 mph 26.5 mph N/A   Overcast
2:35 AM 44.6 °F 36.9 °F 37.4 °F 76% 30.18 in 10.0 mi North 18.4 mph 25.3 mph N/A   Overcast
2:55 AM 42.8 °F 34.3 °F 37.4 °F 81% 30.20 in 10.0 mi North 19.6 mph 29.9 mph N/A   Overcast
3:15 AM 42.8 °F 34.0 °F 37.4 °F 81% 30.20 in 10.0 mi North 20.7 mph 27.6 mph N/A   Overcast
3:35 AM 42.8 °F 34.5 °F 37.4 °F 81% 30.21 in 10.0 mi North 18.4 mph 25.3 mph N/A   Overcast
3:55 AM 42.8 °F 33.5 °F 37.4 °F 81% 30.22 in 10.0 mi North 23.0 mph - N/A   Overcast
4:15 AM 42.8 °F 33.5 °F 37.4 °F 81% 30.23 in 10.0 mi North 23.0 mph 27.6 mph N/A   Overcast
4:35 AM 42.8 °F 34.8 °F 37.4 °F 81% 30.23 in 10.0 mi North 17.3 mph 26.5 mph N/A   Overcast
4:55 AM 42.8 °F 34.3 °F 37.4 °F 81% 30.23 in 10.0 mi North 19.6 mph - N/A   Overcast
5:15 AM 42.8 °F 34.8 °F 37.4 °F 81% 30.23 in 10.0 mi North 17.3 mph 23.0 mph N/A   Overcast
5:35 AM 42.8 °F 35.4 °F 37.4 °F 81% 30.23 in 10.0 mi North 15.0 mph 23.0 mph N/A   Overcast
5:55 AM 42.8 °F 36.2 °F 37.4 °F 81% 30.23 in 10.0 mi NNE 12.7 mph - N/A   Overcast
6:15 AM 42.8 °F 35.4 °F 37.4 °F 81% 30.26 in 10.0 mi NNW 15.0 mph 18.4 mph N/A   Overcast
6:35 AM 42.8 °F 34.5 °F 37.4 °F 81% 30.27 in 10.0 mi North 18.4 mph - N/A   Overcast
6:55 AM 42.8 °F 36.2 °F 39.2 °F 87% 30.29 in 7.0 mi North 12.7 mph 18.4 mph N/A   Overcast
7:15 AM 42.8 °F 34.8 °F 39.2 °F 87% 30.30 in 7.0 mi North 17.3 mph 23.0 mph N/A   Overcast
7:35 AM 42.8 °F 35.1 °F 41.0 °F 93% 30.30 in 5.0 mi North 16.1 mph 24.2 mph N/A   Drizzle
7:55 AM 42.8 °F 35.1 °F 41.0 °F 93% 30.31 in 5.0 mi North 16.1 mph - N/A   Overcast
8:15 AM 41.0 °F 31.6 °F 39.2 °F 93% 30.31 in 5.0 mi North 20.7 mph 25.3 mph N/A   Overcast
8:35 AM 41.0 °F 31.6 °F 39.2 °F 93% 30.33 in 5.0 mi NNW 20.7 mph 26.5 mph N/A   Overcast
8:55 AM 41.0 °F 30.2 °F 37.4 °F 87% 30.34 in 3.0 mi NNW 27.6 mph 32.2 mph N/A   Overcast
9:15 AM 39.2 °F 28.5 °F 37.4 °F 93% 30.32 in 3.0 mi North 24.2 mph 31.1 mph N/A   Light Drizzle
9:35 AM 39.2 °F 29.3 °F 37.4 °F 93% 30.33 in 4.0 mi North 20.7 mph 24.2 mph N/A   Light Drizzle
9:55 AM 39.2 °F 28.0 °F 37.4 °F 93% 30.32 in 7.0 mi North 26.5 mph 33.4 mph N/A   Overcast
10:15 AM 41.0 °F 31.4 °F 35.6 °F 81% 30.33 in 10.0 mi North 21.9 mph 33.4 mph N/A   Overcast
10:35 AM 41.0 °F 30.0 °F 35.6 °F 81% 30.32 in 10.0 mi North 28.8 mph 34.5 mph N/A   Overcast
10:55 AM 41.0 °F 30.5 °F 35.6 °F 81% 30.33 in 10.0 mi North 26.5 mph 34.5 mph N/A   Overcast
11:15 AM 41.0 °F 30.9 °F 35.6 °F 81% 30.35 in 10.0 mi North 24.2 mph 34.5 mph N/A   Overcast
11:35 AM 41.0 °F 30.5 °F 35.6 °F 81% 30.34 in 10.0 mi North 26.5 mph 31.1 mph N/A   Overcast
11:55 AM 39.2 °F 27.8 °F 35.6 °F 87% 30.34 in 10.0 mi North 27.6 mph 33.4 mph N/A Rain Light Rain
12:15 PM 39.2 °F 29.6 °F 35.6 °F 87% 30.35 in 10.0 mi North 19.6 mph 36.8 mph N/A   Overcast
12:35 PM 39.2 °F 29.0 °F 33.8 °F 81% 30.36 in 10.0 mi North 21.9 mph 33.4 mph N/A   Overcast
12:55 PM 39.2 °F 29.8 °F 35.6 °F 87% 30.38 in 10.0 mi North 18.4 mph 32.2 mph N/A   Overcast
1:15 PM 39.2 °F 28.7 °F 35.6 °F 87% 30.36 in 10.0 mi North 23.0 mph 31.1 mph N/A   Overcast
1:35 PM 37.4 °F 26.6 °F 35.6 °F 93% 30.37 in 4.0 mi North 21.9 mph 29.9 mph N/A Rain Light Rain
1:55 PM 37.4 °F 25.9 °F 35.6 °F 93% 30.37 in 7.0 mi North 25.3 mph 29.9 mph N/A Rain Light Rain
2:15 PM 37.4 °F 27.2 °F 35.6 °F 93% 30.37 in 7.0 mi North 19.6 mph 33.4 mph N/A Rain Light Rain
2:35 PM 37.4 °F 26.6 °F 33.8 °F 87% 30.37 in 10.0 mi North 21.9 mph 31.1 mph N/A   Light Drizzle
2:55 PM 37.4 °F 26.6 °F 35.6 °F 93% 30.37 in 5.0 mi North 21.9 mph 32.2 mph N/A Rain Light Rain
3:15 PM 37.4 °F 25.4 °F 35.6 °F 93% 30.37 in 7.0 mi North 27.6 mph 32.2 mph N/A   Light Drizzle
3:35 PM 37.4 °F 25.9 °F 33.8 °F 87% 30.38 in 10.0 mi North 25.3 mph 33.4 mph N/A   Light Drizzle
3:55 PM 37.4 °F 27.5 °F 33.8 °F 87% 30.38 in 7.0 mi North 18.4 mph 34.5 mph N/A Rain Light Rain
4:15 PM 37.4 °F 25.6 °F 35.6 °F 93% 30.36 in 7.0 mi North 26.5 mph 32.2 mph N/A Rain Light Rain
4:35 PM 37.4 °F 25.6 °F 33.8 °F 87% 30.37 in 3.0 mi North 26.5 mph 29.9 mph N/A Rain Rain
4:55 PM 35.6 °F 23.2 °F 33.8 °F 93% 30.37 in 4.0 mi North 26.5 mph 31.1 mph N/A Rain Rain
5:15 PM 35.6 °F 24.2 °F 33.8 °F 93% 30.37 in 5.0 mi North 21.9 mph 33.4 mph N/A Rain Light Rain
5:35 PM 35.6 °F 22.7 °F 33.8 °F 93% 30.37 in 4.0 mi North 28.8 mph 36.8 mph N/A Rain Light Rain
5:55 PM 35.6 °F 22.1 °F 33.8 °F 93% 30.37 in 7.0 mi North 32.2 mph 39.1 mph N/A Rain Light Rain
6:15 PM 35.6 °F 23.0 °F 33.8 °F 93% 30.37 in 10.0 mi North 27.6 mph 38.0 mph N/A   Light Drizzle
6:35 PM 35.6 °F 24.5 °F 33.8 °F 93% 30.38 in 10.0 mi North 20.7 mph 29.9 mph N/A Rain Light Rain
6:55 PM 35.6 °F 25.2 °F 33.8 °F 93% 30.38 in 5.0 mi North 18.4 mph 27.6 mph N/A Rain Light Rain
7:15 PM 35.6 °F 24.2 °F 33.8 °F 93% 30.37 in 5.0 mi North 21.9 mph 28.8 mph N/A Rain Light Rain
7:35 PM 35.6 °F 24.0 °F 33.8 °F 93% 30.38 in 5.0 mi North 23.0 mph 35.7 mph N/A Rain Light Rain
7:55 PM 35.6 °F 24.5 °F 33.8 °F 93% 30.40 in 10.0 mi North 20.7 mph 33.4 mph N/A Rain Light Rain
8:15 PM 35.6 °F 25.9 °F 33.8 °F 93% 30.39 in 10.0 mi North 16.1 mph 26.5 mph N/A Rain Light Rain
8:35 PM 35.6 °F 25.2 °F 33.8 °F 93% 30.39 in 10.0 mi North 18.4 mph 26.5 mph N/A Rain Light Rain
8:55 PM 35.6 °F 24.2 °F 33.8 °F 93% 30.40 in 10.0 mi North 21.9 mph 27.6 mph N/A Rain Light Rain
9:15 PM 35.6 °F 25.2 °F 33.8 °F 93% 30.39 in 10.0 mi North 18.4 mph 28.8 mph N/A Rain Light Rain
9:35 PM 35.6 °F 24.8 °F 32.0 °F 87% 30.40 in 7.0 mi North 19.6 mph 24.2 mph N/A Rain Light Rain
9:55 PM 33.8 °F 23.2 °F 32.0 °F 93% 30.39 in 10.0 mi North 17.3 mph 21.9 mph N/A Rain Light Rain
10:15 PM 33.8 °F 23.9 °F 32.0 °F 93% 30.40 in 10.0 mi North 15.0 mph 21.9 mph N/A Rain Light Rain
10:35 PM 33.8 °F 25.3 °F 32.0 °F 93% 30.40 in 5.0 mi North 11.5 mph - N/A Rain Light Rain
10:55 PM 33.8 °F 22.2 °F 32.0 °F 93% 30.39 in 10.0 mi North 20.7 mph 27.6 mph N/A Rain Light Rain
11:15 PM 33.8 °F 23.5 °F 32.0 °F 93% 30.38 in 10.0 mi North 16.1 mph 24.2 mph N/A Rain Light Rain
11:35 PM 35.6 °F 25.9 °F 33.8 °F 93% 30.37 in 10.0 mi North 16.1 mph - N/A   Overcast
11:55 PM 35.6 °F 26.6 °F 33.8 °F 93% 30.36 in 10.0 mi North 13.8 mph 19.6 mph N/A   Overcast